This is the latest recevied weather packets stored in our database for station/object SV9FBP. If no packets are shown the sender has not sent any weather packets the latest 1 day(s).
| Time | Temp. | Humidity | Pressure | Rain* | Wind** | Luminosity | Snow |
|---|---|---|---|---|---|---|---|
| 1778061255 | 21.67° C | 64% | 1016.2 hPa | 0 mm | - | - | - |
| 1778060353 | 21.67° C | 64% | 1016.2 hPa | 0 mm | - | - | - |
| 1778058548 | 21.11° C | 62% | 1016.1 hPa | 0 mm | - | - | - |
| 1778057646 | 20.56° C | 61% | 1016.1 hPa | 0 mm | - | - | - |
| 1778056744 | 20.56° C | 61% | 1016 hPa | 0 mm | - | - | - |
| 1778054038 | 19.44° C | 52% | 1015.9 hPa | 0 mm | - | - | - |
| 1778049528 | 18.33° C | 47% | 1015.1 hPa | 0 mm | - | - | - |
| 1778048625 | 17.78° C | 46% | 1015.2 hPa | 0 mm | - | - | - |
| 1778047722 | 17.22° C | 52% | 1015.2 hPa | 0 mm | - | - | - |
| 1778046820 | 16.67° C | 54% | 1014.9 hPa | 0 mm | - | - | - |
| 1778045918 | 16.67° C | 53% | 1014.9 hPa | 0 mm | - | - | - |
| 1778044114 | 15° C | 61% | 1014.8 hPa | 0 mm | - | - | - |
| 1778043212 | 14.44° C | 61% | 1014.6 hPa | 0 mm | - | - | - |
| 1778042309 | 13.89° C | 60% | 1014.6 hPa | 0 mm | - | - | - |
| 1778040504 | 13.33° C | 59% | 1014.6 hPa | 0 mm | - | - | - |
| 1778039603 | 13.33° C | 58% | 1014.5 hPa | 0 mm | - | - | - |
| 1778038702 | 13.33° C | 58% | 1014.3 hPa | 0 mm | - | - | - |
| 1778037799 | 13.33° C | 57% | 1014.3 hPa | 0 mm | - | - | - |
| 1778036897 | 13.33° C | 56% | 1014.1 hPa | 0 mm | - | - | - |
| 1778035995 | 13.89° C | 56% | 1014.2 hPa | 0 mm | - | - | - |
| 1778035093 | 13.89° C | 57% | 1014.1 hPa | 0 mm | - | - | - |
| 1778034190 | 13.89° C | 56% | 1014.3 hPa | 0 mm | - | - | - |
| 1778031484 | 14.44° C | 59% | 1014.4 hPa | 0 mm | - | - | - |
| 1778030582 | 14.44° C | 57% | 1014.4 hPa | 0 mm | - | - | - |
| 1778029679 | 14.44° C | 56% | 1014.4 hPa | 0 mm | - | - | - |
* Rain latest hour (hover to see other rain measurements)
** Current wind speed in m/s (hover to see current wind gust speed)